Tracking 19176 objects as of 27-May-2018
HD Live streaming from Space Station
objects crossing your sky now

COSMOS 729

Track COSMOS 729 now!
10-day predictions
COSMOS 729 is classified as:


NORAD ID: 7768
Int'l Code: 1975-034A
Perigee: 976.6 km
Apogee: 1,012.7 km
Inclination: 83.0 °
Period: 104.9 minutes
Semi major axis: 7365 km
RCS: 1.6998 m2 (large)
Launch date: April 22, 1975
Source: Commonwealth of Independent States (former USSR) (CIS)
Launch site: PLESETSK MISSILE AND SPACE COMPLEX (PKMTR)
aabbcc
Your satellite tracking list
Your tracking list is empty




NASA's NSSDC Master Catalog

Two Line Element Set (TLE):
1  7768U 75034A   18147.07955479 +.00000030 +00000-0 +16180-4 0  9997
2  7768 082.9615 138.3282 0024506 076.8755 348.7098 13.73378438159037
Source of the keplerian elements: AFSPC